Flag for U.S.A. Weather past 2 weeks in Des Moines, Iowa, U.S.A.

Now
60 °F

Sunny.


Feels Like: 60 °F
Forecast: 44 / 73 °F
Wind: 6 mph from Northwest

Location: Des Moines International Airport

Current Time: Mar 31, 2015 at 10:58:46 AM

Latest Report: Mar 31, 2015 at 9:54 AM


Visibility: 10 mi

Pressure: 29.99 "Hg

Humidity: 41%

Dew point: 36 °F

Location of Des MoinesLocation

Historic Weather in Des Moines — Graph

°F

Des Moines temperature yesterday

Maximum temperature yesterday: 76 °F (at 4:54 PM)
Minimum temperature yesterday: 37 °F (at 3:54 AM)
Average temperature yesterday: 56 °F

Past Weeks' High & Low Weather Summary

 TemperatureHumidityPressure
High84 °F (Mar 16, 3:54 PM)97% (Mar 25, 6:03 AM)30.50 "Hg (Mar 25, 6:03 AM)
Low26 °F (Mar 27, 6:54 AM)13% (Mar 16, 4:54 PM)29.76 "Hg (Mar 16, 4:54 PM)
Average44 °F52%30.12 "Hg
* Reported Mar 16 9:54 AM — Mar 31 9:54 AM, Des Moines, Weather by CustomWeather, © 2015

Note: Actual official high and low records may vary slightly from our data, if they occured in-between our weather recording intervals... More about our weather records

Advertising

Des Moines weather history for previous 24 hours

 ConditionsComfort  
Time TempWeatherWind HumidityBarometerVisibility
9:54 AM
Tue, Mar 31
60 °FSunny.6 mph41%29.99 "Hg10 mi
8:54 AM53 °FPassing clouds.7 mph55%29.98 "Hg10 mi
7:54 AM44 °FPassing clouds.5 mph68%29.98 "Hg10 mi
6:54 AM43 °FPassing clouds.5 mph68%29.95 "Hg10 mi
5:54 AM44 °FClear.7 mph65%29.94 "Hg10 mi
4:54 AM44 °FClear.7 mph63%29.93 "Hg10 mi
3:54 AM49 °FClear.5 mph55%29.91 "Hg10 mi
2:54 AM51 °FClear.7 mph48%29.92 "Hg10 mi
1:54 AM55 °FClear.7 mph42%29.91 "Hg10 mi
12:54 AM57 °FClear.10 mph37%29.89 "Hg10 mi
11:54 PM
Mon, Mar 30
54 °FClear.7 mph43%29.87 "Hg10 mi
10:54 PM57 °FClear.5 mph41%29.87 "Hg10 mi
9:54 PM59 °FClear.13 mph36%29.86 "Hg10 mi
8:54 PM63 °FPassing clouds.12 mph30%29.85 "Hg10 mi
7:54 PM65 °FPassing clouds.7 mph27%29.84 "Hg10 mi
6:54 PM72 °FPassing clouds.12 mph20%29.83 "Hg10 mi
5:54 PM75 °FPartly sunny.21 mph16%29.84 "Hg10 mi
4:54 PM76 °FPartly sunny.23 mph15%29.86 "Hg10 mi
3:54 PM74 °FPartly sunny.24 mph16%29.90 "Hg10 mi
2:54 PM73 °FBroken clouds.26 mph15%29.92 "Hg10 mi
1:54 PM72 °FBroken clouds.23 mph16%29.97 "Hg10 mi
12:54 PM69 °FBroken clouds.23 mph18%30.01 "Hg10 mi
11:54 AM68 °FMostly cloudy.20 mph17%30.03 "Hg10 mi
10:54 AM63 °FMostly cloudy.20 mph22%30.06 "Hg10 mi
Weather by CustomWeather, © 2015

See weather overviewHow to use our weather pages